Location: ??????
(41.3747°N, 22.5491°E)
Time: 14:52:44
(UTC+00:00)

Cosmos 2239 Rocket - Pass Details

Date: 01 December 2020
Orbit: 955 x 990 km, 82.9° (Epoch: 20 January)

Event Time Altitude Azimuth Distance (km) Brightness Sun altitude
Rises 16:52:18 0° 354° (N) 3,648 7.4 -20.3°
Reaches altitude 10° 16:54:49 10° 357° (N) 2,701 6.7 -20.8°
Maximum altitude 17:00:59 72° 81° (E) 1,014 4.3 -21.9°
Drops below altitude 10° 17:07:10 10° 166° (SSE) 2,705 6.8 -23.1°
Sets 17:09:41 0° 168° (SSE) 3,653 7.5 -23.5°
